EW9290 Weather Reports


Display with metric or nautical units.
time (UTC)temp
F
wind
direction
speed
MPH
gust
MPH
rain 1hr
in
rain 24hr
in
rain mn
in
humidity
%
barometer
mb
20260503012804 40 278 1.0 1.0 0.00 0.20 0.20 78 1014.7
20260503012305 40 278 0.0 0.0 0.00 0.20 0.20 77 1014.6
20260503011758 40 278 1.0 1.0 0.00 0.20 0.20 78 1014.7
20260503011255 40 278 0.0 0.0 0.00 0.20 0.20 76 1014.4
20260503010752 40 278 1.0 1.0 0.00 0.20 0.20 76 1014.8
20260503010249 40 279 0.0 0.0 0.00 0.20 0.20 77 1014.4
20260503005746 40 279 0.0 0.0 0.00 0.20 0.20 74 1014.6
20260503005243 41 279 0.0 0.0 0.00 0.20 0.20 72 1014.6
20260503004739 41 279 1.0 1.0 0.00 0.20 0.20 71 1014.4
20260503004237 41 279 1.0 1.0 0.00 0.20 0.20 68 1014.3
20260503003735 41 279 0.0 1.0 0.00 0.20 0.20 67 1014.3
20260503003232 41 281 0.0 1.0 0.00 0.20 0.20 67 1014.3
20260503002728 41 286 1.0 1.0 0.00 0.20 0.20 65 1014.2
20260503002225 42 290 1.0 1.0 0.00 0.20 0.20 64 1014.7
20260503001721 42 289 1.0 1.0 0.00 0.20 0.20 64 1014.4
20260503001218 42 311 0.0 1.0 0.00 0.20 0.20 64 1014.2
20260503000716 42 311 1.0 1.0 0.00 0.20 0.20 62 1014.2
20260503000213 42 357 0.0 1.0 0.00 0.20 0.20 64 1014.7
20260502235710 42 357 1.0 1.0 0.00 0.20 0.20 63 1014.3
20260502235208 42 357 1.0 1.0 0.00 0.20 0.20 62 1014.2
20260502234703 43 357 1.0 1.0 0.00 0.20 0.20 64 1014.4
20260502234201 42 357 0.0 1.0 0.00 0.20 0.20 65 1014.2
20260502233656 42 357 0.0 0.0 0.00 0.20 0.20 65 1014.2
20260502233153 42 357 0.0 1.0 0.00 0.20 0.20 62 1014.2
20260502232649 42 357 1.0 1.0 0.00 0.20 0.20 60 1014.1
20260502232147 42 333 1.0 1.0 0.00 0.20 0.20 60 1014.2
20260502231643 42 354 1.0 1.0 0.00 0.20 0.20 61 1014.3
20260502231141 42 332 1.0 2.0 0.00 0.20 0.20 60 1014.4
20260502230640 42 13 2.0 2.0 0.00 0.20 0.20 64 1014.4
20260502230138 42 9 3.0 3.0 0.00 0.20 0.20 60 1014.3
20260502225633 42 346 1.0 1.0 0.00 0.20 0.20 60 1014.3
20260502225131 43 310 2.0 2.0 0.00 0.20 0.20 60 1014.6
20260502224627 43 330 1.0 1.0 0.00 0.20 0.20 62 1014.3
20260502224123 42 3 3.0 5.0 0.00 0.20 0.20 60 1014.3
20260502223621 42 9 4.0 5.0 0.00 0.20 0.20 59 1014.3
20260502223120 42 333 1.0 2.0 0.00 0.20 0.20 60 1014.4
20260502222617 42 33 4.0 6.0 0.00 0.20 0.20 59 1014.2
20260502222113 43 332 2.0 2.0 0.00 0.20 0.20 61 1014.2
20260502221609 43 333 1.0 2.0 0.00 0.20 0.20 59 1014.2
20260502221106 43 316 2.0 2.0 0.00 0.20 0.20 63 1014.2
20260502220602 43 332 2.0 2.0 0.00 0.20 0.20 61 1014.3
20260502220058 42 275 2.0 2.0 0.00 0.20 0.20 62 1014.6
20260502215556 43 292 5.0 5.0 0.00 0.20 0.20 59 1014.6
20260502215052 43 357 4.0 5.0 0.00 0.20 0.20 61 1014.4
20260502214549 43 339 6.0 7.0 0.00 0.20 0.20 61 1014.2
20260502214047 44 328 1.0 1.0 0.00 0.20 0.20 61 1014.3
20260502213544 43 6 6.0 7.0 0.00 0.20 0.20 62 1014.2
20260502213041 42 339 5.0 5.0 0.00 0.20 0.20 63 1014.1
20260502212540 42 347 3.0 3.0 0.00 0.20 0.20 62 1014.3
20260502212038 42 11 5.0 6.0 0.00 0.20 0.20 64 1014.2
20260502211533 42 343 4.0 5.0 0.00 0.20 0.20 62 1014.2
20260502211030 42 311 3.0 5.0 0.00 0.20 0.20 61 1014.2
20260502210527 42 357 2.0 2.0 0.00 0.20 0.20 65 1014.1
20260502210024 43 26 6.0 7.0 0.00 0.20 0.20 60 1014.1
20260502205521 43 335 3.0 5.0 0.00 0.20 0.20 57 1014.2
20260502205018 44 316 3.0 3.0 0.00 0.20 0.20 59 1014.2
20260502204515 44 359 7.0 8.0 0.00 0.20 0.20 57 1014.2
20260502204013 43 14 4.0 6.0 0.00 0.20 0.20 59 1014.0
20260502203509 43 354 4.0 5.0 0.00 0.20 0.20 59 1013.8
20260502203006 44 331 1.0 2.0 0.00 0.20 0.20 57 1014.1
20260502202502 43 0 5.0 6.0 0.00 0.20 0.20 58 1014.4
20260502202001 43 344 6.0 8.0 0.00 0.20 0.20 56 1014.3
20260502201456 42 328 2.0 2.0 0.00 0.20 0.20 61 1014.3
20260502200953 42 315 4.0 5.0 0.00 0.20 0.20 60 1014.7
20260502200449 43 343 6.0 7.0 0.00 0.20 0.20 61 1014.4
20260502195947 43 297 3.0 5.0 0.00 0.20 0.20 61 1014.3
20260502195444 42 313 3.0 3.0 0.00 0.20 0.20 59 1014.3
20260502194940 43 300 4.0 6.0 0.00 0.20 0.20 59 1014.3
20260502194437 43 325 3.0 3.0 0.00 0.20 0.20 58 1014.4
20260502193933 43 310 2.0 2.0 0.00 0.20 0.20 61 1014.4
20260502193430 43 304 3.0 3.0 0.00 0.20 0.20 61 1014.6
20260502192926 42 4 3.0 3.0 0.00 0.20 0.20 59 1014.6
20260502192423 43 339 4.0 5.0 0.00 0.20 0.20 57 1014.4
20260502191920 43 324 3.0 3.0 0.00 0.20 0.20 58 1014.4
20260502191418 43 334 4.0 5.0 0.00 0.20 0.20 59 1014.6
20260502190915 43 35 2.0 3.0 0.00 0.20 0.20 60 1014.8
20260502190412 42 345 1.0 2.0 0.00 0.20 0.20 59 1014.7
20260502185908 43 320 3.0 3.0 0.00 0.20 0.20 63 1014.7
20260502185404 43 10 6.0 8.0 0.00 0.20 0.20 63 1014.8
20260502184901 42 5 10.0 13.0 0.00 0.20 0.20 64 1014.9
20260502184356 42 28 2.0 3.0 0.00 0.20 0.20 63 1014.9
20260502183853 42 314 2.0 2.0 0.00 0.20 0.20 63 1014.8
20260502183349 43 24 4.0 6.0 0.00 0.20 0.20 64 1015.0
20260502182844 43 29 2.0 2.0 0.00 0.20 0.20 65 1015.0
20260502182340 42 45 0.0 0.0 0.00 0.20 0.20 65 1015.0
20260502181837 42 19 3.0 5.0 0.00 0.20 0.20 67 1015.0
20260502181336 42 325 5.0 6.0 0.00 0.20 0.20 67 1014.9
20260502180833 42 9 3.0 3.0 0.00 0.20 0.20 67 1015.0
20260502180330 41 344 3.0 5.0 0.00 0.20 0.20 69 1015.0
20260502170249 42 71 1.0 1.0 0.00 0.20 0.20 77 1015.1
20260502164237 41 66 1.0 1.0 0.00 0.20 0.20 80 1015.5
20260502163732 40 31 1.0 1.0 0.00 0.20 0.20 82 1015.3
20260502163229 39 25 2.0 2.0 0.00 0.20 0.20 82 1015.7
20260502162726 39 33 1.0 2.0 0.00 0.20 0.20 83 1015.6
20260502162223 38 24 2.0 2.0 0.00 0.20 0.20 84 1015.5
20260502161720 38 39 3.0 3.0 0.00 0.20 0.20 84 1015.4
20260502161216 38 0 3.0 3.0 0.00 0.20 0.20 85 1015.4
20260502160715 38 356 6.0 7.0 0.00 0.20 0.20 84 1015.4
20260502160214 38 22 5.0 7.0 0.00 0.20 0.20 85 1015.4
20260502152132 37 355 4.0 6.0 0.00 0.20 0.20 93 1015.3
20260502151630 36 341 4.0 5.0 0.00 0.20 0.20 94 1015.5
20260502151127 36 4 3.0 5.0 0.00 0.20 0.20 94 1015.3
20260502150624 36 343 2.0 2.0 0.00 0.20 0.20 95 1015.2
20260502150120 36 16 2.0 2.0 0.00 0.20 0.20 95 1015.2
20260502130509 34 6 8.0 10.0 0.00 0.19 0.19 99 1014.4
20260502123452 36 18 4.0 8.0 0.00 0.19 0.19 99 1014.2
20260502122949 36 34 1.0 2.0 0.00 0.19 0.19 99 1014.2
20260502122445 36 31 4.0 5.0 0.00 0.19 0.19 99 1014.3
20260502121943 35 16 5.0 6.0 0.00 0.19 0.19 99 1014.3
20260502121440 36 19 4.0 5.0 0.00 0.19 0.19 99 1014.2
20260502120938 36 25 2.0 2.0 0.00 0.19 0.19 99 1014.1
20260502120434 36 24 2.0 2.0 0.00 0.19 0.19 99 1014.2
20260502115931 36 9 3.0 3.0 0.00 0.19 0.19 99 1014.0
20260502115428 36 15 3.0 3.0 0.00 0.19 0.19 99 1013.8
20260502114924 36 39 0.0 0.0 0.00 0.19 0.19 99 1013.8
20260502114421 36 49 0.0 1.0 0.00 0.19 0.19 99 1013.9
20260502113918 36 41 0.0 0.0 0.00 0.19 0.19 99 1013.6
20260502113416 36 41 0.0 1.0 0.00 0.19 0.19 99 1013.8
20260502112915 36 41 0.0 0.0 0.00 0.19 0.19 99 1013.5
20260502112411 35 33 0.0 0.0 0.00 0.19 0.19 99 1013.7
20260502111909 35 36 0.0 0.0 0.00 0.19 0.19 99 1013.7
20260502111406 35 38 0.0 0.0 0.00 0.19 0.19 99 1013.4
20260502110903 36 34 0.0 0.0 0.00 0.19 0.19 99 1013.6
20260502110401 36 18 2.0 2.0 0.00 0.19 0.19 99 1013.8
20260502105858 36 28 0.0 0.0 0.00 0.19 0.19 99 1013.8
20260502105355 36 24 0.0 0.0 0.00 0.19 0.19 99 1013.6
20260502104853 36 23 2.0 2.0 0.00 0.19 0.19 99 1013.4
20260502104350 36 33 1.0 2.0 0.00 0.19 0.19 99 1013.4
20260502103847 36 25 2.0 2.0 0.00 0.19 0.19 99 1013.7
20260502103345 36 32 1.0 1.0 0.00 0.19 0.19 99 1013.5
20260502102841 36 32 0.0 0.0 0.00 0.19 0.19 99 1013.4
20260502102338 36 5 0.0 1.0 0.00 0.19 0.19 99 1013.6
20260502101836 36 12 0.0 0.0 0.00 0.19 0.19 99 1013.4
20260502101334 36 19 3.0 3.0 0.00 0.19 0.19 99 1013.5
20260502100832 37 23 1.0 2.0 0.00 0.19 0.19 99 1013.3
20260502100331 37 26 1.0 1.0 0.00 0.19 0.19 99 1013.1
20260502091304 37 175 0.0 0.0 0.00 0.19 0.19 99 1013.2
20260502090802 37 177 0.0 0.0 0.00 0.19 0.19 99 1013.0
20260502090258 37 177 0.0 0.0 0.00 0.19 0.19 99 1012.9
20260502071159 37 41 0.0 1.0 0.07 0.16 0.16 99 1013.1
20260502070657 37 41 3.0 3.0 0.00 0.15 0.15 99 1013.1
20260502070154 37 50 0.0 0.0 0.00 0.15 0.15 99 1013.2
20260502065653 37 49 2.0 2.0 0.00 0.15 0.15 99 1013.1
20260502065150 37 118 1.0 1.0 0.00 0.15 0.15 99 1013.1
20260502064649 37 159 0.0 0.0 0.00 0.15 0.15 99 1013.1
20260502064145 37 164 0.0 1.0 0.00 0.15 0.15 99 1013.0
20260502063643 37 182 4.0 5.0 0.00 0.15 0.15 99 1013.3
20260502063141 37 147 0.0 0.0 0.00 0.15 0.15 99 1013.1
20260502062637 37 147 1.0 2.0 0.00 0.15 0.15 99 1013.2
20260502062135 37 142 0.0 0.0 0.05 0.15 0.15 99 1013.3
20260502061633 37 142 0.0 0.0 0.05 0.15 0.15 99 1013.2
20260502061131 37 142 0.0 0.0 0.00 0.14 0.14 99 1013.4
20260502060631 37 142 0.0 0.0 0.00 0.14 0.14 99 1013.6
20260502060127 37 142 0.0 0.0 0.00 0.14 0.14 99 1013.4
20260502055626 37 143 1.0 1.0 0.00 0.14 0.14 99 1013.5
20260502055123 37 123 0.0 0.0 0.00 0.14 0.14 99 1013.3
20260502054622 37 131 0.0 1.0 0.00 0.14 0.14 99 1013.5
20260502054119 37 117 0.0 0.0 0.00 0.14 0.14 99 1013.8
20260502053616 37 116 0.0 0.0 0.00 0.14 0.14 99 1013.5
20260502053113 37 116 0.0 0.0 0.00 0.14 0.14 99 1013.5
20260502052612 37 104 0.0 0.0 0.00 0.14 0.14 99 1013.6
20260502052110 36 104 1.0 1.0 0.00 0.14 0.14 99 1013.9
20260502051607 37 99 0.0 0.0 0.00 0.14 0.14 99 1013.6
20260502051105 37 111 1.0 3.0 0.00 0.14 0.14 99 1013.8
20260502050601 37 100 0.0 0.0 0.00 0.14 0.14 99 1013.7
20260502050058 37 100 0.0 0.0 0.00 0.14 0.14 99 1013.7
20260502045554 37 95 0.0 0.0 0.07 0.14 0.14 99 1013.8
20260502045052 37 89 0.0 1.0 0.07 0.14 0.14 99 1013.8
20260502044548 37 69 1.0 1.0 0.12 0.13 0.13 99 1014.0
20260502044045 37 27 0.0 0.0 0.19 0.13 0.13 99 1014.1
20260502043542 36 13 0.0 0.0 0.12 0.11 0.11 99 1014.3
20260502043038 37 11 1.0 2.0 0.24 0.10 0.10 99 1014.3
20260502042533 36 16 1.0 1.0 0.31 0.09 0.09 99 1014.1
20260502042031 37 359 2.0 2.0 0.17 0.06 0.06 99 1014.1
20260502041529 37 345 1.0 1.0 0.17 0.04 0.04 99 1014.4
20260502041026 38 316 0.0 0.0 0.19 0.03 0.03 99 1014.3
20260502040522 38 309 2.0 2.0 0.14 0.01 0.01 98 1014.4
20260502040020 38 337 0.0 0.0 0.12 0.00 0.00 98 1014.3
20260502035515 38 351 2.0 2.0 0.12 0.40 0.40 98 1014.4
20260502035013 39 24 3.0 5.0 0.07 0.39 0.39 98 1014.0
20260502034511 39 336 2.0 2.0 0.00 0.38 0.38 98 1014.1
20260502034009 39 343 2.0 2.0 0.05 0.38 0.38 98 1014.0
20260502033507 39 45 0.0 0.0 0.05 0.38 0.38 98 1013.7
20260502033004 39 46 0.0 0.0 0.00 0.37 0.37 98 1013.7
20260502032459 39 46 0.0 1.0 0.00 0.37 0.37 98 1013.7
20260502031956 39 45 0.0 0.0 0.00 0.37 0.37 98 1013.6
20260502031455 39 45 0.0 0.0 0.00 0.37 0.37 98 1013.6
20260502030953 39 45 0.0 0.0 0.00 0.37 0.37 98 1013.2
20260502030450 38 45 0.0 1.0 0.00 0.37 0.37 98 1013.4
20260502025948 38 23 0.0 0.0 0.00 0.37 0.37 98 1013.4
20260502025445 39 21 0.0 0.0 0.00 0.37 0.37 98 1013.4
20260502024943 39 16 0.0 0.0 0.00 0.37 0.37 98 1013.5
20260502024441 39 16 0.0 0.0 0.00 0.37 0.37 98 1013.7
20260502023939 39 16 0.0 0.0 0.00 0.37 0.37 98 1013.6
20260502023436 39 16 0.0 0.0 0.00 0.37 0.37 98 1013.5
20260502022933 39 16 0.0 0.0 0.00 0.37 0.37 98 1013.5
20260502022430 38 16 0.0 0.0 0.00 0.37 0.37 97 1013.5
20260502021927 38 16 0.0 0.0 0.00 0.37 0.37 97 1013.4
20260502021424 38 14 0.0 0.0 0.00 0.37 0.37 97 1013.4
20260502020921 38 359 0.0 0.0 0.00 0.37 0.37 97 1013.4
20260502020419 38 359 0.0 0.0 0.00 0.37 0.37 97 1013.4
20260502015915 38 359 0.0 0.0 0.00 0.37 0.37 96 1013.3
20260502015413 38 359 0.0 0.0 0.00 0.37 0.37 96 1013.3
20260502014910 38 359 0.0 0.0 0.00 0.37 0.37 97 1013.4
20260502014407 38 359 0.0 0.0 0.00 0.37 0.37 96 1013.3
20260502013903 38 359 0.0 1.0 0.00 0.37 0.37 96 1013.2
20260502013358 38 358 0.0 0.0 0.00 0.37 0.37 96 1013.2